• In Netherlands
  • List of Countries
  • For 7 days
  • Water Temperature
  • Satellite Maps
  • Weather Map
  • Weather Widgets
  • user-avatar
    Login

    Hourly Weather Sevan

    Today, 23 March, Thursday

    Time Temperature Precipitation Wind Pressure Humidity
    00:00 -8°C° 0 mm 1 mps 636 mmHg 87%
    01:00 -9°C° 0 mm 0 mps 635 mmHg 87%
    02:00 -9°C° 0 mm 0 mps 635 mmHg 87%
    03:00 -9°C° 0 mm 0 mps 635 mmHg 88%
    04:00 -10°C° 0 mm 0 mps 635 mmHg 88%
    05:00 -10°C° 0 mm 0 mps 635 mmHg 88%
    06:00 -10°C° 0 mm 0 mps 635 mmHg 88%
    07:00 -6°C° 0 mm 0 mps 637 mmHg 82%
    08:00 -2°C° 0 mm 0 mps 638 mmHg 77%
    09:00 +1°C° 0 mm 0 mps 640 mmHg 72%
    10:00 +3°C° 0 mm 0 mps 640 mmHg 71%
    11:00 +4°C° 0 mm 0 mps 640 mmHg 69%
    12:00 +5°C° 0 mm 0 mps 640 mmHg 68%
    13:00 +5°C° 0 mm 0 mps 639 mmHg 68%
    14:00 +6°C° 0 mm 1 mps 639 mmHg 68%
    15:00 +6°C° 0 mm 1 mps 639 mmHg 68%
    16:00 +5°C° 0 mm 1 mps 638 mmHg 72%
    17:00 +3°C° 0 mm 1 mps 638 mmHg 76%
    18:00 +1°C° 0 mm 1 mps 638 mmHg 80%
    19:00 0°C° 0 mm 1 mps 638 mmHg 82%
    20:00 0°C° 0 mm 1 mps 639 mmHg 83%
    21:00 -1°C° 0 mm 1 mps 639 mmHg 84%
    22:00 -1°C° 0 mm 1 mps 639 mmHg 85%
    23:00 -1°C° 0 mm 1 mps 640 mmHg 86%

    Tomorrow, 24 March, Friday

    Time Temperature Precipitation Wind Pressure Humidity
    00:00 -2°C° 0 mm 1 mps 640 mmHg 87%
    01:00 -2°C° 0 mm 1 mps 640 mmHg 87%
    02:00 -2°C° 0 mm 1 mps 640 mmHg 88%
    03:00 -3°C° 0 mm 1 mps 640 mmHg 88%
    04:00 -3°C° 0 mm 1 mps 640 mmHg 89%
    05:00 -3°C° 0 mm 1 mps 640 mmHg 89%
    06:00 -4°C° 0 mm 1 mps 640 mmHg 89%
    07:00 -1°C° 0 mm 1 mps 641 mmHg 83%
    08:00 +1°C° 0 mm 1 mps 642 mmHg 78%
    09:00 +4°C° 0 mm 1 mps 643 mmHg 72%
    10:00 +5°C° 0 mm 1 mps 643 mmHg 70%
    11:00 +6°C° 0 mm 1 mps 643 mmHg 67%
    12:00 +7°C° 0 mm 1 mps 643 mmHg 65%
    13:00 +7°C° 0 mm 1 mps 642 mmHg 65%
    14:00 +8°C° 0 mm 1 mps 642 mmHg 65%
    15:00 +8°C° 0 mm 1 mps 641 mmHg 65%
    16:00 +6°C° 0 mm 1 mps 641 mmHg 70%
    17:00 +4°C° 0 mm 1 mps 641 mmHg 74%
    18:00 +3°C° 0 mm 1 mps 641 mmHg 79%
    19:00 +2°C° 0 mm 1 mps 641 mmHg 81%
    20:00 +1°C° 0 mm 1 mps 641 mmHg 82%
    21:00 0°C° 0 mm 1 mps 641 mmHg 84%
    22:00 -1°C° 0 mm 1 mps 641 mmHg 84%
    23:00 -1°C° 0 mm 1 mps 641 mmHg 84%

    Day after tomorrow, 25 March, Saturday

    Time Temperature Precipitation Wind Pressure Humidity
    00:00 -2°C° 0 mm 1 mps 641 mmHg 84%
    01:00 -2°C° 0 mm 1 mps 640 mmHg 85%
    02:00 -3°C° 0 mm 1 mps 640 mmHg 85%
    03:00 -3°C° 0 mm 1 mps 640 mmHg 86%
    04:00 -3°C° 0 mm 1 mps 639 mmHg 85%
    05:00 -4°C° 0 mm 1 mps 639 mmHg 84%
    06:00 -4°C° 0 mm 1 mps 639 mmHg 83%
    07:00 -1°C° 0 mm 1 mps 640 mmHg 76%
    08:00 +2°C° 0 mm 1 mps 640 mmHg 70%
    09:00 +5°C° 0 mm 1 mps 641 mmHg 63%
    10:00 +6°C° 0 mm 1 mps 641 mmHg 62%
    11:00 +7°C° 0 mm 1 mps 640 mmHg 60%
    12:00 +9°C° 0 mm 1 mps 640 mmHg 58%
    13:00 +9°C° 0 mm 1 mps 640 mmHg 58%
    14:00 +9°C° 0 mm 1 mps 639 mmHg 58%
    15:00 +9°C° 0 mm 1 mps 639 mmHg 58%
    16:00 +7°C° 0 mm 1 mps 638 mmHg 64%
    17:00 +5°C° 0 mm 1 mps 637 mmHg 70%
    18:00 +2°C° 0 mm 0 mps 636 mmHg 76%
    19:00 +1°C° 0 mm 0 mps 636 mmHg 76%
    20:00 0°C° 0 mm 0 mps 636 mmHg 77%
    21:00 -1°C° 0 mm 0 mps 637 mmHg 78%
    22:00 -1°C° 0 mm 0 mps 636 mmHg 78%
    23:00 -1°C° 0 mm 0 mps 636 mmHg 78%

    26 March, Sunday

    Time Temperature Precipitation Wind Pressure Humidity
    00:00 -1°C° 0 mm 0 mps 636 mmHg 78%
    01:00 -2°C° 0 mm 0 mps 636 mmHg 79%
    02:00 -2°C° 0 mm 0 mps 636 mmHg 79%
    03:00 -2°C° 0 mm 0 mps 636 mmHg 79%
    04:00 -3°C° 0 mm 0 mps 636 mmHg 79%
    05:00 -2°C° 0 mm 1 mps 636 mmHg 78%
    06:00 -2°C° 0 mm 1 mps 636 mmHg 78%
    07:00 +1°C° 0 mm 1 mps 637 mmHg 72%
    08:00 +4°C° 0 mm 1 mps 638 mmHg 66%
    09:00 +6°C° 0 mm 1 mps 639 mmHg 60%
    10:00 +7°C° 0 mm 1 mps 639 mmHg 58%
    11:00 +9°C° 0 mm 1 mps 639 mmHg 56%
    12:00 +10°C° 0 mm 1 mps 639 mmHg 53%
    13:00 +10°C° 0 mm 1 mps 639 mmHg 54%
    14:00 +10°C° 0 mm 1 mps 638 mmHg 54%
    15:00 +10°C° 0 mm 1 mps 638 mmHg 54%
    16:00 +8°C° 0 mm 1 mps 638 mmHg 59%
    17:00 +7°C° 0 mm 1 mps 638 mmHg 63%
    18:00 +5°C° 0 mm 1 mps 638 mmHg 68%
    19:00 +4°C° 0 mm 1 mps 638 mmHg 69%
    20:00 +3°C° 0 mm 1 mps 638 mmHg 69%
    21:00 +1°C° 0 mm 1 mps 638 mmHg 70%
    22:00 +1°C° 0 mm 1 mps 638 mmHg 69%
    23:00 +1°C° 0 mm 1 mps 638 mmHg 68%

    27 March, Monday

    Time Temperature Precipitation Wind Pressure Humidity
    00:00 +1°C° 0 mm 1 mps 638 mmHg 67%
    01:00 +1°C° 0 mm 1 mps 638 mmHg 68%
    02:00 0°C° 0 mm 1 mps 638 mmHg 69%
    03:00 0°C° 0 mm 1 mps 638 mmHg 70%
    04:00 0°C° 0 mm 1 mps 638 mmHg 70%
    05:00 0°C° 0 mm 1 mps 638 mmHg 70%
    06:00 0°C° 0 mm 1 mps 638 mmHg 69%
    07:00 +3°C° 0 mm 1 mps 639 mmHg 63%
    08:00 +5°C° 0 mm 1 mps 640 mmHg 58%
    09:00 +7°C° 0 mm 1 mps 640 mmHg 52%
    10:00 +9°C° 0 mm 1 mps 640 mmHg 51%
    11:00 +9°C° 0 mm 2 mps 640 mmHg 50%
    12:00 +10°C° 0 mm 2 mps 640 mmHg 49%
    13:00 +10°C° 0 mm 2 mps 640 mmHg 50%
    14:00 +10°C° 0 mm 2 mps 640 mmHg 51%
    15:00 +10°C° 0 mm 2 mps 639 mmHg 51%
    16:00 +10°C° 0 mm 1 mps 639 mmHg 56%
    17:00 +8°C° 0 mm 1 mps 639 mmHg 62%
    18:00 +6°C° 0 mm 1 mps 638 mmHg 67%
    19:00 +5°C° 0 mm 1 mps 638 mmHg 67%
    20:00 +4°C° 0 mm 1 mps 638 mmHg 67%
    21:00 +3°C° 0 mm 1 mps 639 mmHg 67%
    22:00 +3°C° 0 mm 1 mps 639 mmHg 68%
    23:00 +3°C° 0 mm 1 mps 639 mmHg 69%

    28 March, Tuesday

    Time Temperature Precipitation Wind Pressure Humidity
    00:00 +3°C° 0 mm 1 mps 639 mmHg 69%
    01:00 +3°C° 0 mm 1 mps 639 mmHg 71%
    02:00 +2°C° 0 mm 1 mps 639 mmHg 72%
    03:00 +2°C° 0 mm 1 mps 638 mmHg 73%
    04:00 +2°C° 0 mm 1 mps 638 mmHg 74%
    05:00 +2°C° 0 mm 1 mps 639 mmHg 75%
    06:00 +2°C° 0 mm 1 mps 639 mmHg 76%
    07:00 +4°C° 0 mm 1 mps 639 mmHg 70%
    08:00 +6°C° 0 mm 1 mps 640 mmHg 64%
    09:00 +8°C° 0 mm 1 mps 640 mmHg 59%
    10:00 +8°C° 0 mm 2 mps 640 mmHg 57%
    11:00 +9°C° 0 mm 2 mps 640 mmHg 56%
    12:00 +10°C° 0 mm 2 mps 640 mmHg 55%
    13:00 +10°C° 0.1 mm 2 mps 640 mmHg 56%
    14:00 +10°C° 0.1 mm 2 mps 639 mmHg 57%
    15:00 +10°C° 0.1 mm 2 mps 639 mmHg 57%
    16:00 +9°C° 0.2 mm 2 mps 639 mmHg 63%
    17:00 +8°C° 0.2 mm 1 mps 638 mmHg 68%
    18:00 +7°C° 0.2 mm 1 mps 638 mmHg 73%
    19:00 +6°C° 0 mm 1 mps 638 mmHg 74%
    20:00 +5°C° 0 mm 1 mps 638 mmHg 76%
    21:00 +4°C° 0 mm 1 mps 638 mmHg 77%
    22:00 +4°C° 0 mm 1 mps 638 mmHg 76%
    23:00 +4°C° 0 mm 1 mps 638 mmHg 75%
    Show more